COSMOS 2491 DEB, 44996

Orbit data source: Space-Track

COSMOS 2491 DEB, 44996 is space debris in LEO originally from a launch on Wed, 25 Dec 2013 UTC launched from the Plesetsk Missile And Space Complex (PKMTR). Debris objects in space refer to the collection of defunct objects orbiting the Earth. Examples of debris include non-operational satellites, rocket bodies, and fragments generated from explosions, collisions, or faulty payload assembly.

Loading next visibility...
Identifier
44996, 2013-076R
Orbit
LEO
Country
Flag of CISCIS
Related business
Manufacturer
TsNIIKhM
Mission
Spacecraft
Bus & Motor
Unknown
Mass
Unknown
Launch date (UTC)
2013-12-25 (12 years ago)
Launch vehicle
Unknown
Launch site
Plesetsk Missile And Space Complex (PKMTR)
Object type
Payload
Rocket body
Debris
Shape & HBR
Unknown shape, 0.1 m
Radar Cross Section
Small (<0.1 m²)

Expand to show TLE details & history
Last TLE update: 2 months ago

TLE from 2 months ago
0 COSMOS 2491 DEB
1 44996U 13076R   26075.11054522  .00000103  00000-0  67118-3 0  9999
2 44996  82.4803 226.7346 0014052 273.6958  86.2515 12.43343666280792
Epoch: 2026-03-16T02:39Z
TLE epoch observation values (Epoch: 2026-03-16T02:39:11.107Z)
Latitude
-0.00004°
Longitude
13.2306°
Altitude
1,494.453 km
Speed
7.117 km/s
True Right ascension
15h 06m 56s
True Declination
0° 00' 00"
Sunlit
Object was in full shadow at epoch
Visualization orbit readout
Latitude
Unknown
Longitude
Unknown
Altitude
Unknown
Speed
Unknown
Apparent Right ascension
Unknown
Apparent Declination
Unknown
Sunlit
N/A
Visualization observer readout
Local Sidereal Time
17:01:27
Azimuth
Unknown
Elevation
Unknown
Doppler factor
Unknown
Orbital elements
Apogee altitude
1,500.868 km
Perigee altitude
1,478.756 km
Semi-major axis
7,867.949 km
Eccentricity
0.00141
Inclination
82.4803°
RAAN
226.7346°
Arg. of periapsis
273.6958°
True anomaly
86.4122°
Mean anomaly
86.2515°
Eccentric anomaly
86.33185°
Mean motion
3.10993 °/min
Orbital period
115.76 mins
BSTAR
0.00067118
Loading maneuver chart data...
Computing Atmospheric mass density...
Loading historical data...
Loading historical data...
Loading historical data...
Loading historical data...
Loading historical data...
Loading historical data...
Loading historical data...

Documentation

Showing up to 5 results
|